FDX1869 KOAK-KLAX

Flight info

Callsign FDX1869
Flight time 0h 58m
Altitude 31000
Route CNDEL5 SUSEY EBAYE BURGL IRNMN2
Aircraft B763/H-SDE3FGHIM3RWXY/LB1

Departure

Time 2026-04-22 05:11
Airport San Francisco Bay Oakland International Airport (KOAK)

Arrival

Time 2026-04-22 06:09
Airport Los Angeles International Airport (KLAX)
Time Latitude Longitude Altitude Speed Heading
2026-04-22 04:48 37.71567 -122.21687 20 ft 0 kts 47°
2026-04-22 05:03 37.71564 -122.21691 20 ft 2 kts 47°
2026-04-22 05:03 37.71554 -122.21704 20 ft 2 kts 47°
2026-04-22 05:03 37.71542 -122.21720 20 ft 3 kts 43°
2026-04-22 05:04 37.71526 -122.21734 20 ft 3 kts 21°
2026-04-22 05:04 37.71506 -122.21739 20 ft 3 kts 360°
2026-04-22 05:04 37.71486 -122.21735 20 ft 3 kts 339°
2026-04-22 05:04 37.71479 -122.21731 20 ft 0 kts 332°
2026-04-22 05:07 37.71480 -122.21732 20 ft 0 kts 332°
2026-04-22 05:07 37.71494 -122.21740 20 ft 4 kts 335°
2026-04-22 05:07 37.71535 -122.21764 20 ft 9 kts 336°
2026-04-22 05:08 37.71604 -122.21776 20 ft 12 kts 18°
2026-04-22 05:08 37.71680 -122.21701 20 ft 16 kts 46°
2026-04-22 05:08 37.71764 -122.21585 20 ft 20 kts 47°
2026-04-22 05:08 37.71866 -122.21445 20 ft 23 kts 47°
2026-04-22 05:09 37.71983 -122.21280 20 ft 27 kts 55°
2026-04-22 05:09 37.72057 -122.21060 20 ft 28 kts 70°
2026-04-22 05:09 37.72118 -122.20847 20 ft 25 kts 70°
2026-04-22 05:09 37.72160 -122.20700 20 ft 14 kts 69°
2026-04-22 05:10 37.72211 -122.20633 20 ft 12 kts 11°
2026-04-22 05:10 37.72253 -122.20688 20 ft 10 kts 291°
2026-04-22 05:10 37.72301 -122.20842 20 ft 40 kts 291°
2026-04-22 05:10 37.72504 -122.21454 20 ft 111 kts 291°
2026-04-22 05:11 37.72867 -122.22611 87 ft 165 kts 289°
2026-04-22 05:11 37.73298 -122.23992 872 ft 170 kts 289°
2026-04-22 05:11 37.73799 -122.25402 1558 ft 184 kts 293°
2026-04-22 05:11 37.74420 -122.26929 1635 ft 213 kts 294°
2026-04-22 05:12 37.75116 -122.28655 1583 ft 222 kts 297°
2026-04-22 05:12 37.75964 -122.30341 2089 ft 234 kts 302°
2026-04-22 05:12 37.77000 -122.32036 2851 ft 247 kts 306°
2026-04-22 05:12 37.78146 -122.33679 3911 ft 250 kts 308°
2026-04-22 05:13 37.79011 -122.35522 4913 ft 247 kts 287°
2026-04-22 05:13 37.79238 -122.37684 5862 ft 251 kts 266°
2026-04-22 05:13 37.78690 -122.39804 6635 ft 265 kts 240°
2026-04-22 05:13 37.77342 -122.41472 7402 ft 279 kts 216°
2026-04-22 05:14 37.75561 -122.42402 8658 ft 273 kts 199°
2026-04-22 05:14 37.73720 -122.42845 9737 ft 278 kts 192°
2026-04-22 05:14 37.71758 -122.43135 10038 ft 294 kts 190°
2026-04-22 05:14 37.69605 -122.43417 10145 ft 321 kts 189°
2026-04-22 05:15 37.67388 -122.43693 10346 ft 321 kts 189°
2026-04-22 05:15 37.65122 -122.43989 10668 ft 332 kts 190°
2026-04-22 05:15 37.62795 -122.44345 11463 ft 340 kts 191°
2026-04-22 05:15 37.60402 -122.44782 12126 ft 352 kts 193°
2026-04-22 05:16 37.57978 -122.45295 12827 ft 361 kts 194°
2026-04-22 05:16 37.55477 -122.45863 13672 ft 367 kts 194°
2026-04-22 05:16 37.52935 -122.46358 14533 ft 373 kts 188°
2026-04-22 05:16 37.50299 -122.46105 15299 ft 386 kts 173°
2026-04-22 05:17 37.47665 -122.45255 16143 ft 391 kts 168°
2026-04-22 05:17 37.45084 -122.44260 16961 ft 395 kts 167°
2026-04-22 05:17 37.42446 -122.43190 17728 ft 399 kts 166°
2026-04-22 05:17 37.39854 -122.41813 18431 ft 411 kts 155°
2026-04-22 05:18 37.35727 -122.37550 19468 ft 434 kts 139°
2026-04-22 05:18 37.33634 -122.34739 20006 ft 444 kts 136°
2026-04-22 05:18 37.31587 -122.31836 20551 ft 452 kts 135°
2026-04-22 05:19 37.29510 -122.28819 21107 ft 459 kts 135°
2026-04-22 05:19 37.27404 -122.25733 21657 ft 466 kts 135°
2026-04-22 05:19 37.25273 -122.22614 22206 ft 472 kts 135°
2026-04-22 05:19 37.23131 -122.19510 22715 ft 478 kts 135°
2026-04-22 05:20 37.20923 -122.16346 23229 ft 484 kts 136°
2026-04-22 05:20 37.18692 -122.13169 23718 ft 491 kts 136°
2026-04-22 05:20 37.16411 -122.09948 24188 ft 497 kts 136°
2026-04-22 05:20 37.14111 -122.06659 24668 ft 503 kts 135°
2026-04-22 05:21 37.11808 -122.03296 25170 ft 508 kts 135°
2026-04-22 05:21 37.09489 -121.99916 25682 ft 512 kts 136°
2026-04-22 05:21 37.07185 -121.96565 26290 ft 513 kts 136°
2026-04-22 05:21 37.04846 -121.93160 26835 ft 515 kts 136°
2026-04-22 05:22 37.02495 -121.89750 27274 ft 519 kts 136°
2026-04-22 05:22 37.00118 -121.86313 27693 ft 523 kts 137°
2026-04-22 05:22 36.97777 -121.82956 28240 ft 523 kts 137°
2026-04-22 05:22 36.95339 -121.79510 28822 ft 522 kts 138°
2026-04-22 05:23 36.92917 -121.76133 29374 ft 521 kts 138°
2026-04-22 05:23 36.90489 -121.72755 29896 ft 521 kts 139°
2026-04-22 05:23 36.88063 -121.69373 30399 ft 521 kts 139°
2026-04-22 05:23 36.85639 -121.65982 30730 ft 525 kts 138°
2026-04-22 05:24 36.83228 -121.62602 30896 ft 527 kts 138°
2026-04-22 05:24 36.80788 -121.59167 30995 ft 526 kts 138°
2026-04-22 05:24 36.75985 -121.52330 31030 ft 521 kts 137°
2026-04-22 05:25 36.71264 -121.45549 31031 ft 519 kts 138°
2026-04-22 05:25 36.66501 -121.38744 31030 ft 520 kts 138°
2026-04-22 05:26 36.61740 -121.32012 31027 ft 518 kts 139°
2026-04-22 05:26 36.56900 -121.25378 31027 ft 517 kts 139°
2026-04-22 05:27 36.52081 -121.18755 31026 ft 517 kts 139°
2026-04-22 05:27 36.47296 -121.12119 31025 ft 518 kts 139°
2026-04-22 05:28 36.42535 -121.05384 31024 ft 517 kts 138°
2026-04-22 05:28 36.37799 -120.98656 31031 ft 516 kts 139°
2026-04-22 05:29 36.33133 -120.91942 31034 ft 516 kts 137°
2026-04-22 05:29 36.28454 -120.85147 31035 ft 516 kts 137°
2026-04-22 05:30 36.23815 -120.78403 31032 ft 517 kts 138°
2026-04-22 05:30 36.19123 -120.71650 31030 ft 515 kts 138°
2026-04-22 05:31 36.14462 -120.64944 31029 ft 515 kts 139°
2026-04-22 05:31 36.09701 -120.58310 31030 ft 515 kts 139°
2026-04-22 05:32 36.04936 -120.51666 31033 ft 515 kts 139°
2026-04-22 05:32 36.00191 -120.45030 31035 ft 515 kts 139°
2026-04-22 05:33 35.95508 -120.38289 31034 ft 517 kts 138°
2026-04-22 05:33 35.90851 -120.31601 31033 ft 516 kts 139°
2026-04-22 05:34 35.86011 -120.25113 31032 ft 504 kts 148°
2026-04-22 05:34 35.83221 -120.22594 31032 ft 491 kts 158°
2026-04-22 05:34 35.80261 -120.20548 31032 ft 484 kts 162°
2026-04-22 05:35 35.74330 -120.16642 31032 ft 488 kts 160°
2026-04-22 05:35 35.68488 -120.12285 31038 ft 492 kts 158°
2026-04-22 05:36 35.62708 -120.07769 31038 ft 491 kts 158°
2026-04-22 05:36 35.56921 -120.03346 31034 ft 493 kts 158°
2026-04-22 05:37 35.51091 -119.98998 31033 ft 490 kts 159°
2026-04-22 05:37 35.45252 -119.94707 31033 ft 487 kts 159°
2026-04-22 05:38 35.39440 -119.90397 31032 ft 488 kts 159°
2026-04-22 05:38 35.33620 -119.86073 31033 ft 489 kts 158°
2026-04-22 05:39 35.27887 -119.81648 31034 ft 491 kts 155°
2026-04-22 05:39 35.22364 -119.76588 31035 ft 497 kts 150°
2026-04-22 05:40 35.16978 -119.71317 31029 ft 497 kts 150°
2026-04-22 05:40 35.11520 -119.66131 31025 ft 496 kts 151°
2026-04-22 05:41 35.06055 -119.60989 31024 ft 494 kts 151°
2026-04-22 05:41 35.03351 -119.58488 31023 ft 481 kts 152°
2026-04-22 05:41 35.00713 -119.56062 31019 ft 468 kts 152°
2026-04-22 05:42 34.98177 -119.53726 30774 ft 459 kts 152°
2026-04-22 05:42 34.95636 -119.51378 30165 ft 457 kts 152°
2026-04-22 05:42 34.93106 -119.49031 29494 ft 456 kts 152°
2026-04-22 05:42 34.90567 -119.46715 28854 ft 454 kts 153°
2026-04-22 05:43 34.88043 -119.44429 28286 ft 451 kts 152°
2026-04-22 05:43 34.85534 -119.42150 27751 ft 446 kts 153°
2026-04-22 05:43 34.83884 -119.40662 27405 ft 443 kts 153°
2026-04-22 05:43 34.80600 -119.37759 26722 ft 437 kts 153°
2026-04-22 05:44 34.78144 -119.35602 26214 ft 432 kts 153°
2026-04-22 05:44 34.75714 -119.33450 25709 ft 428 kts 153°
2026-04-22 05:44 34.73314 -119.31333 25211 ft 424 kts 153°
2026-04-22 05:44 34.71735 -119.29936 24884 ft 422 kts 153°
2026-04-22 05:45 34.69371 -119.27851 24394 ft 417 kts 154°
2026-04-22 05:45 34.67021 -119.25809 23908 ft 413 kts 154°
2026-04-22 05:45 34.64684 -119.23803 23428 ft 409 kts 154°
2026-04-22 05:45 34.62379 -119.21842 22954 ft 405 kts 154°
2026-04-22 05:46 34.60075 -119.19888 22481 ft 401 kts 154°
2026-04-22 05:46 34.57864 -119.18004 22028 ft 398 kts 154°
2026-04-22 05:46 34.55580 -119.16021 21558 ft 395 kts 153°
2026-04-22 05:46 34.53366 -119.14071 21099 ft 392 kts 153°
2026-04-22 05:47 34.51172 -119.12121 20645 ft 388 kts 153°
2026-04-22 05:47 34.49005 -119.10176 20193 ft 385 kts 152°
2026-04-22 05:47 34.46861 -119.08234 19733 ft 383 kts 152°
2026-04-22 05:47 34.44734 -119.06318 19309 ft 378 kts 153°
2026-04-22 05:48 34.42618 -119.04453 18925 ft 374 kts 153°
2026-04-22 05:48 34.40512 -119.02605 18528 ft 372 kts 153°
2026-04-22 05:48 34.38443 -119.00804 18121 ft 370 kts 153°
2026-04-22 05:48 34.36344 -118.99005 17683 ft 369 kts 154°
2026-04-22 05:49 34.34236 -118.97231 17193 ft 369 kts 154°
2026-04-22 05:49 34.32144 -118.95426 16715 ft 369 kts 152°
2026-04-22 05:49 34.30148 -118.93642 16272 ft 367 kts 151°
2026-04-22 05:49 34.28046 -118.91736 15817 ft 364 kts 151°
2026-04-22 05:50 34.26034 -118.89880 15385 ft 362 kts 150°
2026-04-22 05:50 34.24077 -118.88034 14964 ft 359 kts 149°
2026-04-22 05:50 34.22091 -118.86160 14540 ft 356 kts 149°
2026-04-22 05:50 34.20167 -118.84368 14134 ft 352 kts 149°
2026-04-22 05:51 34.18228 -118.82587 13739 ft 348 kts 150°
2026-04-22 05:51 34.16293 -118.80833 13328 ft 346 kts 149°
2026-04-22 05:51 34.14432 -118.78994 12909 ft 346 kts 146°
2026-04-22 05:51 34.12629 -118.77060 12490 ft 344 kts 144°
2026-04-22 05:52 34.10875 -118.75106 12090 ft 341 kts 143°
2026-04-22 05:52 34.09141 -118.73165 11704 ft 338 kts 143°
2026-04-22 05:52 34.07424 -118.71247 11313 ft 335 kts 143°
2026-04-22 05:52 34.05740 -118.69363 10925 ft 332 kts 142°
2026-04-22 05:53 34.04078 -118.67446 10532 ft 331 kts 137°
2026-04-22 05:53 34.02838 -118.65089 10123 ft 336 kts 117°
2026-04-22 05:53 34.02219 -118.62367 9727 ft 336 kts 102°
2026-04-22 05:53 34.01986 -118.59572 9334 ft 334 kts 95°
2026-04-22 05:54 34.01927 -118.57466 9042 ft 332 kts 92°
2026-04-22 05:54 34.01897 -118.54728 8663 ft 329 kts 92°
2026-04-22 05:54 34.01762 -118.52046 8263 ft 322 kts 96°
2026-04-22 05:54 34.01494 -118.49354 7876 ft 310 kts 99°
2026-04-22 05:55 34.01185 -118.46861 7533 ft 299 kts 99°
2026-04-22 05:55 34.01097 -118.44391 7190 ft 289 kts 88°
2026-04-22 05:55 34.01368 -118.42036 6870 ft 278 kts 79°
2026-04-22 05:55 34.01808 -118.39812 6564 ft 269 kts 75°
2026-04-22 05:56 34.02303 -118.37663 6270 ft 260 kts 74°
2026-04-22 05:56 34.02779 -118.35578 6070 ft 255 kts 76°
2026-04-22 05:56 34.03100 -118.33513 5814 ft 249 kts 82°
2026-04-22 05:56 34.03265 -118.31475 5833 ft 239 kts 86°
2026-04-22 05:57 34.03354 -118.29483 5928 ft 239 kts 87°
2026-04-22 05:57 34.03466 -118.27448 5822 ft 246 kts 85°
2026-04-22 05:57 34.03548 -118.26324 5697 ft 247 kts 85°
2026-04-22 05:57 34.03635 -118.25217 5564 ft 246 kts 84°
2026-04-22 05:58 34.03800 -118.23162 5324 ft 243 kts 84°
2026-04-22 05:58 34.03958 -118.21183 5122 ft 238 kts 85°
2026-04-22 05:58 34.04114 -118.19198 5022 ft 235 kts 85°
2026-04-22 05:58 34.04267 -118.17229 4962 ft 237 kts 85°
2026-04-22 05:59 34.04424 -118.15223 4695 ft 243 kts 85°
2026-04-22 05:59 34.04587 -118.13220 4427 ft 240 kts 85°
2026-04-22 05:59 34.04750 -118.11228 4220 ft 237 kts 85°
2026-04-22 05:59 34.04909 -118.09259 4059 ft 235 kts 85°
2026-04-22 06:00 34.04938 -118.07297 3968 ft 230 kts 99°
2026-04-22 06:00 34.04291 -118.05638 3922 ft 211 kts 133°
2026-04-22 06:00 34.03103 -118.04761 3856 ft 196 kts 163°
2026-04-22 06:00 34.01806 -118.04431 3805 ft 192 kts 174°
2026-04-22 06:01 34.00489 -118.04228 3757 ft 189 kts 180°
2026-04-22 06:01 33.99261 -118.04623 3685 ft 181 kts 214°
2026-04-22 06:01 33.98546 -118.05814 3650 ft 177 kts 249°
2026-04-22 06:01 33.98419 -118.07271 3638 ft 179 kts 269°
2026-04-22 06:02 33.98459 -118.08750 3592 ft 167 kts 269°
2026-04-22 06:02 33.98417 -118.10059 3498 ft 147 kts 264°
2026-04-22 06:02 33.98285 -118.11232 3444 ft 138 kts 261°
2026-04-22 06:02 33.98170 -118.12368 3381 ft 138 kts 263°
2026-04-22 06:03 33.98052 -118.13507 3321 ft 137 kts 261°
2026-04-22 06:03 33.97924 -118.14648 3249 ft 137 kts 262°
2026-04-22 06:03 33.97795 -118.15783 3195 ft 137 kts 261°
2026-04-22 06:03 33.97689 -118.16928 3149 ft 138 kts 263°
2026-04-22 06:04 33.97565 -118.18072 3105 ft 138 kts 261°
2026-04-22 06:04 33.97447 -118.19208 3058 ft 138 kts 263°
2026-04-22 06:04 33.97329 -118.20357 3018 ft 138 kts 261°
2026-04-22 06:04 33.97199 -118.21500 2975 ft 138 kts 262°
2026-04-22 06:05 33.97079 -118.22646 2940 ft 137 kts 262°
2026-04-22 06:05 33.96949 -118.23787 2826 ft 140 kts 261°
2026-04-22 06:05 33.96835 -118.24980 2608 ft 140 kts 263°
2026-04-22 06:05 33.96703 -118.26117 2434 ft 138 kts 261°
2026-04-22 06:06 33.96591 -118.27273 2246 ft 139 kts 263°
2026-04-22 06:06 33.96461 -118.28429 2075 ft 138 kts 262°
2026-04-22 06:06 33.96330 -118.29581 1877 ft 139 kts 262°
2026-04-22 06:06 33.96191 -118.30738 1694 ft 139 kts 260°
2026-04-22 06:07 33.96046 -118.31890 1514 ft 144 kts 263°
2026-04-22 06:07 33.95933 -118.33102 1315 ft 145 kts 264°
2026-04-22 06:07 33.95812 -118.34310 1118 ft 144 kts 264°
2026-04-22 06:07 33.95685 -118.35480 952 ft 138 kts 263°
2026-04-22 06:08 33.95569 -118.36597 747 ft 137 kts 263°
2026-04-22 06:08 33.95450 -118.37745 566 ft 135 kts 263°
2026-04-22 06:08 33.95335 -118.38874 391 ft 136 kts 263°
2026-04-22 06:08 33.95226 -118.40004 213 ft 135 kts 264°
2026-04-22 06:09 33.95117 -118.41076 141 ft 108 kts 263°
2026-04-22 06:09 33.95059 -118.41659 140 ft 37 kts 256°
2026-04-22 06:09 33.94990 -118.41846 140 ft 20 kts 238°
2026-04-22 06:09 33.94919 -118.41971 140 ft 17 kts 231°
2026-04-22 06:10 33.94838 -118.42098 140 ft 22 kts 233°
2026-04-22 06:10 33.94745 -118.42245 140 ft 13 kts 227°
2026-04-22 06:10 33.94692 -118.42322 140 ft 11 kts 231°
2026-04-22 06:10 33.94640 -118.42373 140 ft 9 kts 198°
2026-04-22 06:11 33.94580 -118.42376 140 ft 10 kts 171°
2026-04-22 06:11 33.94505 -118.42359 140 ft 11 kts 154°
2026-04-22 06:11 33.94443 -118.42309 140 ft 10 kts 154°
2026-04-22 06:11 33.94374 -118.42308 140 ft 10 kts 219°
2026-04-22 06:12 33.94355 -118.42374 140 ft 5 kts 263°
2026-04-22 06:12 33.94354 -118.42377 140 ft 0 kts 264°